Location: Holiday Acres Laynes 2 Mobile Home Park
(26.7249°N, 81.8671°W)
Time: 13:42:48
(UTC+00:00)

Cosmos 1959 Rocket - Pass Details

Date: 25 November 2020
Orbit: 947 x 998 km, 83.0° (Epoch: 24 January)

Event Time Altitude Azimuth Distance (km) Brightness Sun altitude
Rises 23:42:04 0° 358° (N) 3,718 7.4 -15.1°
Reaches altitude 10° 23:44:38 10° 1° (N) 2,766 6.7 -15.6°
Maximum altitude 23:50:58 70° 84° (E) 1,055 4.4 -17.0°
Drops below altitude 10° 23:57:14 10° 168° (SSE) 2,741 6.9 -18.3°
Sets 23:59:45 0° 170° (S) 3,681 7.6 -18.9°
